Home > Weather > Częstochowa > Past weeks

Flag for Poland Past Weather in Częstochowa, Poland — Yesterday and Last 2 Weeks

Now
54 °F

Clear.


Feels Like: 53 °F
Forecast: 60 / 85 °F
Wind: 3 mph from Southeast

Location: Katowice Airport

Current Time: Jun 29, 2016 at 4:09:56 AM

Latest Report: Jun 29, 2016 at 3:30 AM


Visibility: 4 mi

Pressure: 30.01 "Hg

Humidity: 100%

Dew Point: 54 °F

Location of CzęstochowaLocation

Past Weather in Częstochowa — Graph

°F

Częstochowa Temperature Yesterday

Maximum temperature yesterday: 73 °F (at 6:30 PM)
Minimum temperature yesterday: 57 °F (at 3:30 AM)
Average temperature yesterday: 63 °F

High & Low Weather Summary for the Past Weeks

 TemperatureHumidityPressure
High93 °F (Jun 25, 4:30 PM)100% (Jun 14, 4:00 AM)30.30 "Hg (Jun 14, 4:00 AM)
Low46 °F (Jun 19, 4:30 AM)30% (Jun 25, 2:30 PM)29.47 "Hg (Jun 17, 9:00 AM)
Average67 °F73%29.97 "Hg
* Reported Jun 14 3:00 AM — Jun 29 3:00 AM, Częstochowa, Weather by CustomWeather, © 2016

Note: Actual official high and low records may vary slightly from our data, if they occured in-between our weather recording intervals... More about our weather records

Advertising

Częstochowa Weather History for the Previous 24 Hours

Scroll right to see more
 ConditionsComfort  
Time TempWeatherWind HumidityBarometerVisibility
3:00 AM
Wed, Jun 29
52 °FClear.2 mph100%30.01 "Hg4 mi
2:30 AM52 °FClear.2 mph100%30.01 "Hg10 mi
2:00 AM54 °FClear.5 mph100%30.01 "Hg10 mi
1:30 AM55 °FClear.3 mph94%30.01 "Hg10 mi
1:00 AM55 °FClear.6 mph94%30.04 "Hg10 mi
12:30 AM54 °FPassing clouds.3 mph94%30.04 "HgN/A
12:00 AM57 °FClear.2 mph94%30.04 "Hg10 mi
11:30 PM
Tue, Jun 28
57 °FClear.1 mph88%30.01 "Hg10 mi
11:00 PM57 °FClear.1 mph94%30.04 "Hg10 mi
10:30 PM59 °FClear.2 mph88%30.04 "Hg10 mi
10:00 PM61 °FClear.2 mph88%30.04 "Hg10 mi
9:30 PM61 °FPassing clouds.3 mph88%30.01 "HgN/A
9:00 PM64 °FSunny.2 mph73%30.01 "Hg10 mi
8:30 PM68 °FPassing clouds.6 mph64%30.01 "HgN/A
8:00 PM70 °FSunny.5 mph60%30.01 "Hg10 mi
7:30 PM72 °FPassing clouds.3 mph53%30.01 "HgN/A
7:00 PM72 °FSunny.1 mph57%30.01 "Hg10 mi
6:30 PM73 °FSunny.2 mph53%30.01 "Hg10 mi
6:00 PM72 °FPassing clouds.5 mph53%30.01 "HgN/A
5:30 PM72 °FPassing clouds.3 mph50%30.01 "HgN/A
5:00 PM72 °FSunny.3 mph57%30.01 "Hg10 mi
4:30 PM72 °FSunny.2 mph53%30.04 "Hg10 mi
4:00 PM72 °FPassing clouds.3 mph53%30.04 "HgN/A
3:30 PM70 °FPassing clouds.5 mph60%30.04 "HgN/A
3:00 PM70 °FPassing clouds.2 mph57%30.04 "HgN/A
2:30 PM68 °FPassing clouds.2 mph60%30.04 "HgN/A
2:00 PM70 °FScattered clouds.5 mph60%30.04 "HgN/A
1:30 PM70 °FScattered clouds.2 mph57%30.07 "HgN/A
1:00 PM68 °FScattered clouds.6 mph56%30.07 "HgN/A
12:30 PM68 °FBroken clouds.6 mph56%30.07 "HgN/A
12:00 PM66 °FSunny.2 mph68%30.07 "Hg10 mi
11:30 AM64 °FPassing clouds.5 mph73%30.07 "HgN/A
11:00 AM64 °FPassing clouds.3 mph78%30.07 "HgN/A
10:30 AM63 °FSunny.2 mph83%30.07 "Hg10 mi
10:00 AM61 °FSunny.2 mph88%30.07 "Hg10 mi
9:30 AM61 °FPassing clouds.3 mph88%30.07 "HgN/A
9:00 AM61 °FPassing clouds.5 mph88%30.07 "HgN/A
8:30 AM61 °FScattered clouds.5 mph88%30.07 "HgN/A
8:00 AM59 °FLight rain. Scattered clouds.6 mph94%30.07 "HgN/A
7:30 AM59 °FLight rain. Scattered clouds.5 mph94%30.07 "HgN/A
7:00 AM59 °FLight rain. Passing clouds.2 mph94%30.07 "HgN/A
6:30 AM57 °FLight rain. Scattered clouds.2 mph94%30.07 "HgN/A
6:00 AM57 °FSunny.3 mph94%30.07 "Hg10 mi
5:30 AM57 °FPassing clouds.2 mph94%30.04 "HgN/A
5:00 AM57 °FPassing clouds.3 mph94%30.07 "HgN/A
4:30 AM57 °FPassing clouds.3 mph94%30.04 "HgN/A
4:00 AM57 °FLight rain. Passing clouds.2 mph94%30.04 "HgN/A
Weather by CustomWeather, © 2016

See weather overviewHow to use our weather pages